[[{"header":{"parameterUnit":"m.s-1","parameterCategory":1,"la1":30.2991,"la2":30.254,"lo1":-89.0895,"lo2":-89.0444,"dy":0.0017,"dx":0.0017,"nx":28,"ny":28,"refTime":"2024-04-23T21:00:00:Z","depth":0,"parameterNumber":2,"parameterNumberName":"U-component_of_WINDS"},"data":[0,0,0,0,0,0,0,0,0,0,0,0,0,0,0,0,0,0,0,0,0,0,0,0,0,0,0,0,0,0,0,0,0,0,0,0,0,0,0,0,0,0,0,0,0,0,0,0,0,0,0,0,0,0,0,0,0,0,-0.9712,-0.9711,0,-0.9655,-0.9655,-0.9654,-0.9608,-0.9607,-0.9607,-0.9606,-0.9546,-0.9545,-0.9544,0,0,0,0,0,0,0,0,0,0,0,0,0,-0.9779,-0.9778,-0.9712,-0.9711,-0.9711,-0.9655,-0.9655,-0.9654,-0.9608,-0.9607,-0.9607,-0.9606,-0.9547,-0.9546,-0.9544,0,0,0,0,0,0,0,0,0,0,0,0,0,-0.9739,-0.9778,-0.9712,-0.9681,-0.9678,-0.9656,-0.9655,-0.9654,-0.9608,-0.9607,-0.9606,-0.9606,-0.9547,-0.9546,-0.9544,-0.9548,0,0,-0.9539,-0.9538,0,0,0,0,0,0,0,0,-0.9741,-0.9736,-0.9686,-0.9683,-0.9679,-0.9638,-0.9656,-0.9618,-0.9608,-0.9634,-0.9606,-0.9605,-0.9577,-0.9573,-0.9564,-0.9545,-0.9542,-0.9539,-0.9538,-0.9537,-0.9536,0,0,0,0,0,0,0,-0.9744,-0.9738,-0.9689,-0.9686,-0.9681,-0.9669,-0.9663,-0.9649,-0.961,-0.9632,-0.9628,-0.9622,-0.9575,-0.9566,-0.9562,-0.9541,-0.9539,-0.9537,-0.9536,-0.9535,-0.9523,-0.9523,0,0,0,0,0,0,-0.9752,-0.9741,-0.9691,-0.9688,-0.9709,-0.9669,-0.9661,-0.9652,-0.961,-0.9604,-0.9623,-0.962,-0.9569,-0.9564,-0.956,-0.9562,-0.9537,-0.9535,-0.9534,-0.9522,-0.9523,-0.9524,0,0,0,0,0,0,-0.9753,-0.9748,-0.9694,-0.9713,-0.9706,-0.9668,-0.9658,-0.9651,-0.9641,-0.9604,-0.9597,-0.9621,-0.9568,-0.9562,-0.9551,-0.9559,-0.9534,-0.9533,-0.9521,-0.9522,-0.9523,-0.9565,0,0,0,0,0,0,-0.9755,-0.9749,-0.975,-0.9714,-0.9705,-0.9686,-0.9658,-0.965,-0.9639,-0.9635,-0.96,-0.9593,-0.9567,-0.9554,-0.955,-0.9556,-0.9531,-0.952,-0.9522,-0.9523,-0.9563,-0.9568,-0.9572,0,0,0,0,0,-0.9758,-0.9764,-0.975,-0.9745,-0.9706,-0.9687,-0.9682,-0.9652,-0.964,-0.9641,-0.9616,-0.9594,-0.9559,-0.9553,-0.9548,-0.9554,-0.952,-0.9521,-0.9523,-0.9561,-0.9567,-0.9571,0,0,0,0,0,0,-0.9801,-0.9758,-0.9743,-0.9737,-0.9716,-0.9679,-0.9679,-0.9659,-0.9641,-0.9638,-0.9602,-0.9594,-0.9587,-0.9569,-0.9564,-0.9556,-0.9536,-0.9537,-0.9567,-0.9572,-0.9577,-0.9581,-0.953,0,0,0,0,0,-0.981,-0.9799,-0.9762,-0.976,-0.975,-0.9717,-0.9708,-0.9687,-0.9663,-0.9654,-0.9629,-0.9606,-0.959,-0.958,-0.9563,-0.956,-0.9552,-0.9562,-0.9566,-0.957,-0.9571,-0.9568,-0.9572,-0.9529,-0.9529,-0.9529,0,0,-0.9828,-0.9803,-0.9798,-0.9768,-0.9749,-0.9738,-0.971,-0.9699,-0.969,-0.9652,-0.964,-0.9621,-0.9594,-0.9587,-0.9582,-0.9572,-0.9581,-0.9572,-0.9575,-0.9574,-0.957,-0.9574,-0.9578,-0.953,-0.9529,-0.9529,0,0,-0.9855,-0.9835,-0.9832,-0.9814,-0.9786,-0.9764,-0.9763,-0.9729,-0.9715,-0.9703,-0.9675,-0.9663,-0.9636,-0.9618,-0.9605,-0.9626,-0.9604,-0.9621,-0.9643,-0.9641,-0.9644,-0.9647,-0.9655,-0.9658,-0.9622,-0.9622,-0.9622,0,-0.9881,-0.9863,-0.9833,-0.9824,-0.9811,-0.9777,-0.9774,-0.9757,-0.9725,-0.9717,-0.9706,-0.9672,-0.9651,-0.9639,-0.9644,-0.9635,-0.9633,-0.9625,-0.9647,-0.9649,-0.9651,-0.9658,-0.9661,-0.9624,-0.9624,-0.9624,-0.9624,0,-0.9896,-0.9885,-0.9885,-0.9856,-0.9843,-0.9837,-0.9805,-0.9796,-0.9777,-0.9756,-0.9744,-0.9717,-0.9695,-0.969,-0.9671,-0.9676,-0.967,-0.9653,-0.9633,-0.9658,-0.9664,-0.9666,-0.9628,-0.9627,-0.9626,-0.9626,0,0,-0.9948,-0.9903,-0.9904,-0.989,-0.9857,-0.9847,-0.9839,-0.9817,-0.981,-0.9789,-0.9782,-0.976,-0.9744,-0.973,-0.9708,-0.9706,-0.9724,-0.9689,-0.9688,-0.9696,-0.9728,-0.9741,-0.9745,-0.971,-0.971,-0.9711,-0.973,0,-0.997,-0.9955,-0.9927,-0.992,-0.9909,-0.9877,-0.987,-0.9849,-0.9829,-0.9816,-0.9794,-0.9779,-0.9759,-0.975,-0.9747,-0.9723,-0.973,-0.9721,-0.9702,-0.9702,-0.971,-0.9747,-0.9761,-0.9781,-0.9732,-0.9733,-0.9733,0,-0.9994,-0.9975,-0.9968,-0.9936,-0.993,-0.9924,-0.9902,-0.9891,-0.9866,-0.9852,-0.9836,-0.9812,-0.9802,-0.9784,-0.9769,-0.9763,-0.9754,-0.9741,-0.9741,-0.9738,-0.9719,-0.9745,-0.9786,-0.979,-0.9736,-0.9736,-0.9736,0,-1.0033,-1.0006,-0.9998,-0.9987,-0.995,-0.9947,-0.9931,-0.9905,-0.9894,-0.9875,-0.9867,-0.9847,-0.9836,-0.982,-0.9792,-0.9781,-0.978,-0.976,-0.9768,-0.9768,-0.9769,-0.9769,-0.9809,-0.9763,-0.9763,-0.9763,-0.9763,0,-1.006,-1.0056,-1.0015,-1.001,-1.0005,-0.9974,-0.997,-0.9951,-0.9928,-0.9919,-0.989,-0.9881,-0.9844,-0.9831,-0.9809,-0.98,-0.9795,-0.9783,-0.9777,-0.9786,-0.9787,-0.9779,-0.9777,-0.9764,-0.9763,-0.9763,-0.9763,0,-1.0103,-1.0075,-1.0064,-1.003,-1.0021,-1.0019,-0.9989,-0.9983,-0.9962,-0.995,-0.9946,-0.9912,-0.9895,-0.9865,-0.984,-0.9825,-0.9821,-0.9811,-0.9829,-0.9826,-0.9836,-0.9835,-0.9871,-0.9874,-0.9827,-0.9827,-0.9828,0,-1.0122,-1.0118,-1.0084,-1.0076,-1.0062,-1.0049,-1.0038,-1.0006,-0.9996,-0.9967,-0.9965,-0.9946,-0.9929,-0.9904,-0.9877,-0.9858,-0.9847,-0.9861,-0.9844,-0.9853,-0.9847,-0.9848,-0.9847,-0.9865,-0.9866,-0.9866,-0.9867,0,-1.0159,-1.0145,-1.0131,-1.0111,-1.0099,-1.0082,-1.0063,-1.0058,-1.0022,-1.0012,-0.9995,-0.9982,-0.9957,-0.9939,-0.9916,-0.9898,-0.9877,-0.9872,-0.9873,-0.9882,-0.9893,-0.9887,-0.984,-0.9872,-0.9871,-0.9871,-0.987,-0.987,-1.019,-1.0186,-1.0161,-1.0146,-1.0129,-1.0112,-1.0105,-1.0083,-1.0068,-1.0046,-1.0028,-1.0013,-0.9988,-0.9955,-0.9939,-0.9926,-0.9916,-0.9917,-0.9917,-0.9918,-0.9922,-0.9895,-0.9922,-0.9922,-0.9921,-0.9921,-0.9921,0,-1.0226,-1.0209,-1.0195,-1.017,-1.0158,-1.0139,-1.0118,-1.0109,-1.0096,-1.0075,-1.0059,-1.004,-1.0022,-0.9994,-0.9974,-0.9969,-0.9959,-0.9965,-0.9965,-0.9961,-0.9932,-0.9933,-0.9974,-0.9974,-0.9974,-0.9974,-0.9974,-0.9974,-1.0243,-1.0235,-1.0219,-1.0202,-1.0184,-1.0169,-1.0159,-1.0143,-1.0126,-1.0106,-1.0092,-1.0074,-1.005,-1.0028,-1.0011,-1.0003,-0.9997,-1.0006,-0.9995,-0.9968,-0.9963,-0.9959,-0.996,-1.0005,-1.0005,-1.0026,-1.0026,-1.0026]},{"header":{"parameterUnit":"m.s-1","parameterCategory":1,"la1":30.2991,"la2":30.254,"lo1":-89.0895,"lo2":-89.0444,"dy":0.0017,"dx":0.0017,"nx":28,"ny":28,"refTime":"2024-04-23T21:00:00:Z","depth":0,"parameterNumber":3,"parameterNumberName":"V-component_of_WINDS"},"data":[0,0,0,0,0,0,0,0,0,0,0,0,0,0,0,0,0,0,0,0,0,0,0,0,0,0,0,0,0,0,0,0,0,0,0,0,0,0,0,0,0,0,0,0,0,0,0,0,0,0,0,0,0,0,0,0,0,0,-0.2243,-0.2243,0,-0.2321,-0.2322,-0.2323,-0.2364,-0.2364,-0.2364,-0.2364,-0.2445,-0.2447,-0.2449,0,0,0,0,0,0,0,0,0,0,0,0,0,-0.2129,-0.2131,-0.2242,-0.2243,-0.2244,-0.2321,-0.2322,-0.2323,-0.2364,-0.2364,-0.2364,-0.2364,-0.2445,-0.2447,-0.245,0,0,0,0,0,0,0,0,0,0,0,0,0,-0.219,-0.2132,-0.2242,-0.2274,-0.2278,-0.2321,-0.2322,-0.2323,-0.2364,-0.2364,-0.2364,-0.2365,-0.2444,-0.2447,-0.245,-0.2467,0,0,-0.246,-0.2461,0,0,0,0,0,0,0,0,-0.2187,-0.2194,-0.2269,-0.2272,-0.2276,-0.2333,-0.2312,-0.2372,-0.2364,-0.2331,-0.2364,-0.2365,-0.2408,-0.2414,-0.2428,-0.2471,-0.2474,-0.246,-0.2462,-0.2463,-0.2464,0,0,0,0,0,0,0,-0.2182,-0.2191,-0.2274,-0.227,-0.2274,-0.2285,-0.2294,-0.2323,-0.2368,-0.2334,-0.2337,-0.2346,-0.241,-0.2425,-0.2431,-0.2476,-0.246,-0.2463,-0.2464,-0.2466,-0.2536,-0.2536,0,0,0,0,0,0,-0.2173,-0.2187,-0.2271,-0.2276,-0.2231,-0.2287,-0.2297,-0.2315,-0.2368,-0.2376,-0.2346,-0.2348,-0.242,-0.2427,-0.2434,-0.2457,-0.2463,-0.2466,-0.2468,-0.2536,-0.2536,-0.2536,0,0,0,0,0,0,-0.217,-0.218,-0.2268,-0.2233,-0.2245,-0.2289,-0.2309,-0.2316,-0.2331,-0.2377,-0.2385,-0.2353,-0.242,-0.2429,-0.2459,-0.2461,-0.2467,-0.247,-0.2536,-0.2536,-0.2536,-0.2505,0,0,0,0,0,0,-0.2167,-0.2179,-0.2186,-0.2232,-0.2246,-0.2291,-0.2309,-0.2318,-0.2337,-0.234,-0.2386,-0.2394,-0.2421,-0.2454,-0.2462,-0.2465,-0.2473,-0.2536,-0.2536,-0.2536,-0.2506,-0.2504,-0.2502,0,0,0,0,0,-0.2163,-0.2174,-0.2186,-0.2196,-0.2256,-0.2291,-0.2299,-0.233,-0.2337,-0.2344,-0.2373,-0.2392,-0.2459,-0.2456,-0.2466,-0.247,-0.2536,-0.2536,-0.2536,-0.2507,-0.2504,-0.2502,0,0,0,0,0,0,-0.2126,-0.218,-0.2194,-0.2221,-0.2251,-0.2298,-0.2308,-0.2327,-0.2356,-0.2358,-0.2395,-0.2405,-0.2431,-0.2454,-0.2449,-0.249,-0.25,-0.2502,-0.2474,-0.2472,-0.247,-0.2464,-0.2475,0,0,0,0,0,-0.2121,-0.2145,-0.2191,-0.221,-0.2225,-0.2264,-0.228,-0.2302,-0.2335,-0.2348,-0.2379,-0.2411,-0.2439,-0.2457,-0.2485,-0.2509,-0.252,-0.2517,-0.2515,-0.2513,-0.2515,-0.2529,-0.2528,-0.2536,-0.2536,-0.2536,0,0,-0.2111,-0.2144,-0.2157,-0.2204,-0.223,-0.2254,-0.2274,-0.2299,-0.2318,-0.2352,-0.2381,-0.2405,-0.2443,-0.247,-0.2483,-0.2489,-0.2515,-0.2513,-0.2512,-0.2514,-0.2529,-0.2528,-0.2528,-0.2536,-0.2536,-0.2536,0,0,-0.2105,-0.2132,-0.2151,-0.2176,-0.2215,-0.2241,-0.2246,-0.229,-0.2307,-0.2338,-0.2364,-0.2386,-0.2434,-0.246,-0.2479,-0.2483,-0.2502,-0.2492,-0.2481,-0.2495,-0.2494,-0.2494,-0.2496,-0.2496,-0.2493,-0.2493,-0.2493,0,-0.2087,-0.2125,-0.2158,-0.2181,-0.2202,-0.2233,-0.2253,-0.2276,-0.2322,-0.2336,-0.2342,-0.2403,-0.243,-0.2464,-0.2465,-0.2479,-0.2486,-0.2486,-0.2492,-0.2492,-0.2492,-0.2494,-0.2494,-0.2491,-0.2491,-0.2491,-0.2492,0,-0.2102,-0.2127,-0.2138,-0.2182,-0.2203,-0.2224,-0.226,-0.2278,-0.2298,-0.2323,-0.2353,-0.2388,-0.2424,-0.2433,-0.2453,-0.2469,-0.2472,-0.2485,-0.2495,-0.2489,-0.2491,-0.2492,-0.2489,-0.2489,-0.249,-0.249,0,0,-0.2075,-0.2137,-0.214,-0.216,-0.2206,-0.2226,-0.2249,-0.2284,-0.2299,-0.233,-0.235,-0.239,-0.2401,-0.2423,-0.2446,-0.2458,-0.2459,-0.2469,-0.2471,-0.2466,-0.248,-0.247,-0.247,-0.2472,-0.2472,-0.2472,-0.2477,0,-0.2075,-0.2117,-0.2148,-0.2178,-0.2203,-0.2233,-0.2253,-0.2283,-0.2308,-0.2332,-0.2359,-0.2387,-0.24,-0.2414,-0.2427,-0.2456,-0.2462,-0.2456,-0.2491,-0.2492,-0.2481,-0.2472,-0.2461,-0.2464,-0.2478,-0.2478,-0.2478,0,-0.2081,-0.2111,-0.2144,-0.2187,-0.2198,-0.2216,-0.225,-0.2273,-0.2308,-0.2325,-0.2349,-0.2373,-0.2398,-0.2407,-0.2443,-0.2438,-0.2454,-0.2471,-0.2472,-0.2476,-0.2485,-0.2476,-0.2465,-0.2465,-0.248,-0.248,-0.248,0,-0.2058,-0.2107,-0.2133,-0.2149,-0.22,-0.2212,-0.2233,-0.2268,-0.2288,-0.2318,-0.2331,-0.2364,-0.2382,-0.2407,-0.2439,-0.2442,-0.2472,-0.2483,-0.2487,-0.2486,-0.2491,-0.249,-0.2483,-0.2502,-0.2502,-0.2502,-0.2502,0,-0.2056,-0.2075,-0.2123,-0.2139,-0.2161,-0.2196,-0.2217,-0.2242,-0.2273,-0.2294,-0.2323,-0.2342,-0.2383,-0.2408,-0.2433,-0.2459,-0.2467,-0.2481,-0.2488,-0.2479,-0.2477,-0.249,-0.249,-0.2502,-0.2502,-0.2502,-0.2502,0,-0.2034,-0.2067,-0.2097,-0.2143,-0.2155,-0.2169,-0.2208,-0.2225,-0.2251,-0.2278,-0.2286,-0.2327,-0.2357,-0.2391,-0.2433,-0.245,-0.2475,-0.2484,-0.2463,-0.2466,-0.2468,-0.2467,-0.2469,-0.2471,-0.2487,-0.2487,-0.2487,0,-0.203,-0.2045,-0.2092,-0.2109,-0.213,-0.2155,-0.2175,-0.221,-0.223,-0.2271,-0.2283,-0.2315,-0.2343,-0.239,-0.2424,-0.2456,-0.2466,-0.2464,-0.2471,-0.2462,-0.2466,-0.2465,-0.2467,-0.2462,-0.2462,-0.2462,-0.2462,0,-0.2019,-0.2035,-0.2062,-0.2095,-0.2118,-0.2145,-0.2174,-0.2186,-0.2227,-0.2247,-0.2279,-0.23,-0.2343,-0.2375,-0.2411,-0.2434,-0.2455,-0.2459,-0.2462,-0.2453,-0.244,-0.2447,-0.2457,-0.2459,-0.2459,-0.2459,-0.246,-0.246,-0.2006,-0.2021,-0.2057,-0.2086,-0.2112,-0.2138,-0.2156,-0.2184,-0.2211,-0.2248,-0.2267,-0.2298,-0.2333,-0.2384,-0.2406,-0.2431,-0.2438,-0.2442,-0.2443,-0.2443,-0.2441,-0.2436,-0.2438,-0.2438,-0.2438,-0.2439,-0.2439,0,-0.1997,-0.2022,-0.2048,-0.2088,-0.2111,-0.2128,-0.2161,-0.2179,-0.2206,-0.2237,-0.2264,-0.23,-0.2331,-0.2367,-0.24,-0.2414,-0.2424,-0.2421,-0.2421,-0.2426,-0.2433,-0.2427,-0.2412,-0.2412,-0.2412,-0.2412,-0.2412,-0.2412,-0.1995,-0.2021,-0.2041,-0.2081,-0.2105,-0.2136,-0.2153,-0.2177,-0.2202,-0.2241,-0.2267,-0.229,-0.2323,-0.236,-0.2389,-0.2399,-0.241,-0.2404,-0.2417,-0.2423,-0.2425,-0.2427,-0.2422,-0.2406,-0.2406,-0.2408,-0.2408,-0.2408]}]]